Other Surface Observations
Issued by NWS Tucson, AZ

Home | Current Version | Previous Version | Text Only | Print | Product List | Glossary On
Versions: 1 2 3 4 5 6 7 8 9 10 11 12 13 14 15 16 17 18 19 20 21 22 23 24 25 26 27 28 29 30 31 32 33 34 35 36 37 38 39 40 41 42 43 44 45 46 47 48 49 50
000
SXUS55 KTWC 292116
OSOTWC

WEATHER ROUNDUP FOR SOUTHEAST ARIZONA
NATIONAL WEATHER SERVICE TUCSON AZ
215 PM MST FRI AUG 29 2014

AZZ504>506-514-292215-
LOCATION       SKY/WX    TMP DP  RH WIND       PRES   REMARKS
TUCSON         SUNNY     99  36  11 SE6       29.90F
DAVIS-MONTHAN    N/A    N/A N/A N/A MISG        N/A
CHILDRENS PARK N/A       97  38  13 NW4               PIMA CO DEQ
ALVERNON/22ND  N/A      N/A N/A N/A N/A               PIMA CO DEQ
CHERRY/GLENN   N/A      N/A N/A N/A N/A               PIMA CO DEQ
TANGERINE      N/A       98 N/A N/A NW4               PIMA CO DEQ
CONTL RANCH    N/A      100  42  14 NW5               PIMA CO DEQ
GRANT/1ST      N/A       98  39  13 NE4               PIMA CO DEQ
CRAYCROFT/22ND N/A      N/A N/A N/A N/A               PIMA CO DEQ
GOLFLINKS/KOLB N/A      N/A N/A N/A N/A               PIMA CO DEQ
AJO/12TH       N/A       98  37  12 N3                PIMA CO DEQ
SAGUARO EAST   N/A      N/A N/A N/A N/A               PIMA CO DEQ
FAIRGROUNDS    N/A       96 N/A N/A NE4               PIMA CO DEQ
SAGUARO        N/A      101  41  13 E6G11             *SABINO CYN
SAN CARLOS     N/A       97  38  13 SW5G10            *SAN CARLOS
GREEN VALLEY   N/A       97  38  13 NE3               PIMA CO DEQ
HORSE CAMP CYN N/A       93  38  15 SW8G15            *ARAVAIPA CYN
RINCON MTNS    N/A       76  41  28 S3G11             *NR MANNING CAMP
$$

AZZ509>511-292215-
LOCATION       SKY/WX    TMP DP  RH WIND       PRES   REMARKS
SAFFORD        SUNNY     96  41  15 VRB6      29.91F
STRAY HORSE    N/A       75  39  27 W7G12             *
TRAIL CABIN    N/A       83  40  22 W5G13             *N OF GRANVILLE
BLACK HILLS    N/A       97  38  13 SE2G11            *N OF FT THOMAS
DRY LAKE       N/A       79  44  29 S5G11             *NATANES MTNS
NOON CREEK     N/A       89  43  20 NE4G10            *PINALENO MTNS
COLUMBINE      N/A       66  42  42 SW6G11            *PINALENO MTNS
GUTHRIE        N/A       84  37  19 E5G11             *SW OF GUTHRIE
$$

AZZ502-503-513-292215-
LOCATION       SKY/WX    TMP DP  RH WIND       PRES   REMARKS
NOGALES        SUNNY     91  47  21 NW5       30.00F
SELLS          N/A      101  41  13 NE10G17           *
SASABE         N/A       96  43  16 N5G14             *ALTAR VLY
HOPKINS        N/A       74  49  41 W5G15             *SANTA RITA MTNS
CARR CYN       N/A       88  46  23 NW4G10            *W OF HEREFORD
$$

AZZ507-508-512-292215-
LOCATION       SKY/WX    TMP DP  RH WIND       PRES   REMARKS
SIERRA VISTA   MOSUNNY   90  43  19 E6        30.07F
DOUGLAS        SUNNY     90  45  21 S6        30.02F
EMPIRE MTNS    N/A       90  42  19 E4G13             *LAS CIENEGAS NCA
MULESHOE RANCH N/A       90  41  18 E5G18             *PRESERVE
HEADQUARTERS   N/A       85  48  28 E5G13             *CHIRICAHUA MTNS
$$

.............................NOTES.............................
THIS IS AN AUTOMATED COLLECTIVE WITH MINIMAL QUALITY CONTROL.
PIMA CO DEQ SITES HAVE NONSTANDARD WIND SENSOR HEIGHTS.
PIMA CO DEQ SITES DO NOT REPORT WIND GUSTS.
* INDICATES WIND SENSORS LOCATED AT 20 FEET INSTEAD OF 33 FEET.
..............................KEY..............................
SKY/WX - SKY CONDITION/WEATHER
TMP    - TEMPERATURE IN FAHRENHEIT
DP     - DEWPOINT IN FAHRENHEIT
RH     - RELATIVE HUMIDITY IN PERCENT
WIND   - DIRECTION AND SPEED IN MILES PER HOUR (MPH)
VRB    - VARIABLE WIND DIRECTION
PRES   - MEAN SEA LEVEL PRESSURE IN INCHES OF MERCURY
         F - FALLING PRESSURE   R - RISING PRESSURE
         S - STEADY PRESSURE
VSB    - VISIBILITY IN MILES
HX     - HEAT INDEX IN FAHRENHEIT
WCI    - WIND CHILL INDEX IN FAHRENHEIT
N/A    - NOT AVAILABLE
AFB    - AIR FORCE BASE
         DAVIS-MONTHAN IS DAVIS-MONTHAN AIR FORCE BASE
CYN    - CANYON
MTNS   - MOUNTAINS
NCA    - NATIONAL CONSERVATION AREA
NR     - NEAR
VLY    - VALLEY
CONTL  - CONTINENTAL
PIMA CO DEQ - PIMA COUNTY DEPT OF ENVIRONMENTAL QUALITY



USA.gov is the U.S. government's official web portal to all federal, state and local government web resources and services.